Terminal Aerodrome Forecast
Issued by NWS

Current Version | Previous Version | Text Only | Print | Product List | Glossary On
Versions: 1 2 3 4 5 6 7 8 9 10 11 12 13 14 15 16 17 18 19 20 21 22 23 24 25 26 27 28 29 30 31 32 33 34 35 36 37 38 39 40 41 42 43 44 45 46 47 48 49 50
000
FTUS41 KCTP 302105 AAB
TAFJST
TAF AMD
KJST 302105Z 3021/0118 22013G20KT P6SM SCT035 BKN080
     FM302200 23012G20KT P6SM VCTS BKN035 BKN045CB
      TEMPO 3023/0102 26015G30KT 4SM +TSRA OVC025CB
     FM010200 23005KT 5SM BR BKN019 OVC025
     FM010700 25005KT 3SM -DZ BR OVC008=

USA.gov is the U.S. government's official web portal to all federal, state and local government web resources and services.